Location: Castelnaud-sur-Gupie
(44.5599°N, 0.1327°E)
Time: 02:57:55
(UTC+00:00)

Daily predictions for brighter satellites

Satellite Brightness Start Highest point End
(mag) Time Altitude Azimuth Time Altitude Azimuth Time Altitude Azimuth
Cosmos 2297 Rocket 4.1 04:10:09 19° NNE 04:10:09 19° NNE 04:11:42 10° NNE
Cosmos 2227 Rocket 4.0 04:13:54 21° NNE 04:13:54 21° NNE 04:15:46 10° NNE
CZ-4C R/B 3.0 04:27:04 54° NNW 04:28:59 76° NE 04:37:13 10° SE
Cosmos 407 Rocket 3.9 04:29:54 62° ENE 04:29:59 62° ENE 04:35:16 10° SSE
Cosmos 1464 Rocket 3.9 04:25:37 10° S 04:31:49 85° E 04:38:00 10° N
Cosmos 1140 Rocket 4.4 04:32:38 39° NNE 04:33:54 46° ENE 04:38:54 10° SE
USA 234 3.1 04:30:00 10° NE 04:36:31 73° NW 04:36:56 71° WNW
GEOS 3 Rocket 3.6 04:32:38 10° SE 04:37:16 75° SE 04:37:16 75° SE
SL-16 R/B 2.5 04:47:08 50° SSW 04:47:08 50° SSW 04:51:31 10° S
Cosmos 1933 Rocket 4.1 04:43:14 10° S 04:47:27 56° E 04:51:43 10° NNE
Cosmos 1072 Rocket 4.4 04:52:21 61° NW 04:52:21 61° NW 04:57:57 10° N
Cosmos 2082 4.3 04:57:19 40° NNW 04:57:19 40° NNW 05:01:20 10° NNE
Cosmos 1461 3.6 04:57:21 48° NNE 04:57:47 50° NE 05:02:01 10° SE
ATLAS 5 CENTAUR R/B 3.4 05:01:11 22° N 05:01:11 22° N 05:03:28 10° NNE
Meteor 1-27 Rocket 3.7 04:58:46 50° NW 05:00:13 67° W 05:06:04 10° S
Lacrosse 5 3.4 05:02:53 23° SSW 05:02:53 23° SSW 05:05:22 10° S
Cosmos 724 4.2 05:00:25 26° SSW 05:03:58 89° WNW 05:09:58 10° NE
Nadezhda 4 Rocket 3.8 04:59:27 10° N 05:05:42 80° W 05:11:51 10° S
ALOS 3.1 05:03:57 10° NNE 05:08:31 50° E 05:13:03 10° S
COSMO-SKYMED 1 2.5 05:07:08 10° SSE 05:11:28 85° ENE 05:13:07 38° N
Cosmos 1624 Rocket 3.9 05:07:20 15° SSW 05:11:46 75° WNW 05:17:08 10° NNE
Cosmos 2084 Rocket 3.5 05:11:26 60° NNW 05:12:11 79° NE 05:16:36 10° SE
STARLINK 1053 4.5 05:12:54 32° NNE 05:12:54 32° NNE 05:15:48 10° E
STARLINK 1061 4.4 05:15:20 33° NNE 05:15:20 33° NNE 05:18:22 10° E
Cosmos 2056 Rocket 3.3 05:13:05 17° SSW 05:16:58 70° WNW 05:22:05 10° NNE
Okean O Rocket 2.8 05:12:56 10° NNE 05:17:07 42° E 05:21:18 10° S
STARLINK 1067 4.3 05:18:06 34° NNE 05:18:06 34° NNE 05:21:17 10° E
Cosmos 1190 Rocket 4.0 05:19:26 45° WNW 05:20:40 57° WSW 05:25:46 10° S
USA 116 4.4 05:16:34 10° SSE 05:20:49 67° ENE 05:25:37 10° N
STARLINK 1058 4.2 05:20:46 35° NNE 05:20:54 35° NNE 05:24:06 10° E
Cosmos 676 Rocket 3.9 05:18:53 25° NNW 05:22:02 89° ENE 05:27:19 10° SSE
Cosmos 2242 Rocket 3.6 05:21:39 48° NW 05:22:36 60° W 05:27:01 10° S
STARLINK 1027 4.1 05:23:41 33° NE 05:23:41 33° NE 05:26:07 10° E
STARLINK 1028 4.1 05:23:55 33° NE 05:23:55 33° NE 05:26:21 10° E
STARLINK 1043 4.1 05:23:30 36° NNE 05:23:45 36° NNE 05:26:58 10° E
STARLINK 1021 4.1 05:24:08 33° NE 05:24:08 33° NE 05:26:35 10° E
STARLINK 1034 4.0 05:24:18 33° NE 05:24:18 33° NE 05:26:49 10° E
STARLINK 1019 4.0 05:24:18 34° NE 05:24:18 34° NE 05:26:50 10° E
STARLINK 1012 4.0 05:24:33 33° NE 05:24:33 33° NE 05:27:01 10° E
STARLINK 1010 4.0 05:24:45 33° NE 05:24:45 33° NE 05:27:14 10° E
STARLINK 1026 4.0 05:25:01 33° NE 05:25:01 33° NE 05:27:30 10° E
FALCON 9 R/B 4.3 05:19:03 19° SW 05:24:54 53° SSE 05:52:15 10° E
STARLINK 1013 4.0 05:25:14 34° NE 05:25:14 34° NE 05:27:44 10° E
STARLINK 1009 4.0 05:25:26 34° NE 05:25:26 34° NE 05:27:56 10° E
STARLINK 1015 4.0 05:25:38 34° NE 05:25:38 34° NE 05:28:10 10° E
STARLINK 1052 4.0 05:25:45 34° NE 05:25:45 34° NE 05:28:19 10° E
STARLINK 1016 4.0 05:25:51 34° NE 05:25:51 34° NE 05:28:24 10° E
Cosmos 1703 Rocket 3.5 05:22:12 17° N 05:25:41 86° E 05:30:05 10° S
STARLINK 1008 4.0 05:26:04 34° NE 05:26:04 34° NE 05:28:37 10° E
STARLINK 1014 3.9 05:26:18 34° NNE 05:26:18 34° NNE 05:28:51 10° E
STARLINK 1025 3.9 05:26:31 34° NNE 05:26:31 34° NNE 05:29:05 10° E
STARLINK 1017 3.9 05:26:36 35° NNE 05:26:36 35° NNE 05:29:10 10° E
STARLINK 1065 4.1 05:26:10 36° N 05:26:32 37° NNE 05:29:46 10° E
STARLINK 1023 3.9 05:26:57 35° NNE 05:26:57 35° NNE 05:29:33 10° E
STARLINK 1007 3.9 05:27:09 35° NNE 05:27:09 35° NNE 05:29:45 10° E
CZ-4B DEB 4.3 05:21:30 10° NNE 05:27:04 82° ESE 05:32:36 10° SSW
STARLINK 1048 3.9 05:27:23 35° NNE 05:27:23 35° NNE 05:30:00 10° E
STARLINK 1049 3.9 05:27:35 35° NNE 05:27:35 35° NNE 05:30:13 10° E
STARLINK 1051 3.9 05:27:48 35° NNE 05:27:48 35° NNE 05:30:27 10° E
STARLINK 1037 3.8 05:28:01 36° NNE 05:28:01 36° NNE 05:30:41 10° E
Cosmos 2026 Rocket 4.2 05:21:54 10° N 05:28:03 71° E 05:34:16 10° SSE
STARLINK 1059 3.8 05:28:14 36° NNE 05:28:14 36° NNE 05:30:54 10° E
Geosat 4.1 05:23:18 10° S 05:28:13 54° WSW 05:29:59 36° WNW
STARLINK 1057 3.8 05:28:27 36° NNE 05:28:27 36° NNE 05:31:08 10° E
STARLINK 1040 3.8 05:28:28 38° NNE 05:28:28 38° NNE 05:31:10 10° E
STARLINK 1068 3.8 05:28:53 36° NNE 05:28:53 36° NNE 05:31:35 10° E
STARLINK 1029 3.8 05:29:06 36° NNE 05:29:06 36° NNE 05:31:48 10° E
STARLINK 1060 3.8 05:29:20 36° NNE 05:29:20 36° NNE 05:32:03 10° E
STARLINK 1030 3.8 05:29:29 37° NNE 05:29:30 37° NNE 05:32:17 10° E
STARLINK 1063 4.0 05:29:02 36° N 05:29:32 39° NNE 05:32:47 10° E
STARLINK 1020 3.8 05:29:46 37° NNE 05:29:46 37° NNE 05:32:30 10° E
STARLINK 1033 3.7 05:30:24 37° NNE 05:30:24 37° NNE 05:33:10 10° E
STARLINK 1031 3.7 05:30:37 37° NNE 05:30:38 37° NNE 05:33:23 10° E
STARLINK 1024 3.7 05:30:47 38° NNE 05:30:51 38° NNE 05:33:39 10° E
STARLINK 1035 3.7 05:31:04 37° NNE 05:31:05 37° NNE 05:33:52 10° E
STARLINK 1032 3.7 05:31:16 37° NNE 05:31:19 37° NNE 05:34:05 10° E
STARLINK 1011 3.7 05:31:27 38° NNE 05:31:32 38° NNE 05:34:20 10° E
Cosmos 1484 Rocket 2.8 05:27:48 10° N 05:31:40 52° WNW 05:35:26 10° SSW
STARLINK 1036 3.7 05:31:43 38° NNE 05:31:46 38° NNE 05:34:32 10° E
STARLINK 1047 3.7 05:32:08 38° NNE 05:32:13 38° NNE 05:35:00 10° E
STARLINK 1064 4.0 05:31:39 36° N 05:32:16 40° NNE 05:35:33 10° E
Cosmos 1954 Rocket 3.9 05:29:25 22° NNW 05:32:57 79° WSW 05:38:14 10° SSE
STARLINK 1041 3.9 05:34:24 36° N 05:35:08 42° NNE 05:38:26 10° E
PSLV R/B 4.0 05:31:24 10° N 05:35:22 51° WNW 05:39:22 10° SSW
Cosmos 2263 Rocket 2.4 05:30:37 10° SSW 05:36:10 73° ESE 05:41:44 10° NNE
Cosmos 1420 Rocket 4.0 05:32:38 10° SSW 05:37:50 85° ESE 05:43:04 10° NNE
STARLINK 1038 3.9 05:37:10 35° NNW 05:38:02 43° NNE 05:41:21 10° E
STARLINK 1046 3.8 05:39:54 34° NNW 05:40:53 45° NNE 05:44:14 10° ESE
Cosmos 1869 Rocket 3.6 05:38:17 10° S 05:42:36 81° E 05:46:57 10° N
Cosmos 1634 Rocket 3.9 05:36:58 10° S 05:43:12 87° W 05:49:25 10° N
STARLINK 1039 3.8 05:42:40 33° NNW 05:43:47 47° NNE 05:47:08 10° ESE
Cosmos 2034 Rocket 4.4 05:38:21 10° SW 05:44:13 40° WNW 05:50:10 10° N
STARLINK 1045 3.7 05:43:36 33° NNW 05:44:45 48° NNE 05:48:07 10° ESE
Cosmos 2227 4.1 05:40:10 10° SSW 05:45:54 73° WNW 05:51:42 10° NNE
FALCON 9 DEB 2.0 05:50:58 71° N 05:51:05 75° NNE 05:53:25 10° ESE
Cosmos 2297 Rocket 3.9 05:51:59 14° NNW 05:51:59 14° NNW 05:54:13 10° N
Cosmos 1627 Rocket 4.4 05:45:56 10° NNW 05:52:09 73° W 05:58:24 10° S
OE (NEXTSAT) 4.3 05:52:14 34° W 05:53:38 83° SSW 05:57:10 10° ESE
Cosmos 2227 Rocket 3.9 05:55:45 14° NW 05:55:45 14° NW 05:58:19 10° N
SJ-12 4.3 05:51:21 10° N 05:55:16 41° WNW 05:59:07 10° SW
GRACE-FO 1 4.5 05:53:31 10° S 05:57:12 76° W 06:00:57 10° N
GRACE-FO 2 4.5 05:53:55 10° S 05:57:36 75° W 06:01:21 10° N
STARLINK 1044 2.8 05:58:28 32° NW 05:59:35 67° NNE 06:02:26 10° ESE
SKYMED 2 4.4 05:55:57 10° SSW 05:59:45 30° W 06:01:49 20° NW
CZ-4B R/B 3.2 05:54:21 10° NNE 05:59:57 81° WNW 06:05:36 10° SSW
Meteor 1-14 Rocket 4.3 05:54:54 10° SSW 06:00:49 82° W 06:06:51 10° N
ATLAS CENTAUR R/B 4.0 06:00:07 10° NNE 06:00:56 10° NNE 06:01:44 10° NE
FENGYUN 3A 3.7 05:57:39 10° N 06:02:57 57° WNW 06:08:11 10° SSW
Cosmos 1452 Rocket 3.4 05:58:24 10° SSW 06:03:40 75° WNW 06:08:59 10° NNE
Cosmos 1346 Rocket 2.8 06:00:09 10° S 06:04:01 81° E 06:07:54 10° NNE
Meteor 1-25 Rocket 4.3 05:58:52 10° SSW 06:04:18 54° WNW 06:09:53 10° N
NOAA 6 4.0 06:02:37 10° N 06:07:42 65° WNW 06:12:45 10° SSW
Cosmos 2142 Rocket 4.5 06:01:26 10° SSW 06:07:49 75° W 06:14:15 10° N
PAYLOAD B 4.3 06:03:38 10° N 06:08:58 52° WNW 06:14:18 10° SW
SL-23 DEB 3.7 06:05:55 10° SW 06:09:04 63° SE 06:12:25 10° ENE
Cosmos 1850 Rocket 4.0 06:05:07 10° NNW 06:10:30 88° WSW 06:15:51 10° SSE
Cosmos 1092 Rocket 4.4 06:04:52 10° NNW 06:10:32 39° W 06:16:09 10° SSW
Timation 1 Rocket 4.3 06:07:58 10° SSW 06:13:55 74° WNW 06:19:55 10° NNE
FALCON 9 DEB 2.5 06:15:24 25° WNW 06:16:28 51° SW 06:18:47 10° SE
Cosmos 1943 3.4 06:11:29 10° NW 06:16:56 52° WSW 06:22:21 10° S
CZ-4C R/B 3.9 06:12:17 15° WNW 06:17:16 29° WSW 06:24:06 10° SSW
USA 234 4.0 06:13:09 10° NE 06:18:57 35° NNW 06:24:17 12° WNW
H-2A R/B 3.0 06:15:18 10° NNE 06:19:01 71° ESE 06:22:46 10° S
CZ-4 R/B 4.3 06:18:51 10° NE 06:21:35 18° E 06:24:20 10° SE
PSLV R/B 3.7 06:19:56 13° WSW 06:21:52 34° S 06:24:09 10° ESE
FALCON 9 DEB 2.8 06:21:27 20° WNW 06:22:46 42° SW 06:25:03 10° SE
Okean 1-7 4.0 06:20:42 10° NNW 06:24:24 27° W 06:28:05 10° SW
Meteor 1-19 Rocket 4.2 06:19:20 10° NNW 06:24:45 60° W 06:30:14 10° S
ADEOS Rocket 3.4 06:19:35 10° SSE 06:26:45 83° ENE 06:33:12 10° NNW
CZ-2C R/B 4.3 06:23:13 10° SSE 06:27:52 64° ENE 06:32:35 10° N
Cosmos 405 4.0 06:25:32 10° N 06:29:00 49° ENE 06:32:25 10° SSE
STARLINK 1050 3.1 06:27:04 14° WNW 06:29:57 74° SW 06:33:22 10° SE
Cosmos 371 Rocket 3.7 06:27:50 10° S 06:32:37 69° ESE 06:37:28 10° NNE
STARLINK 1055 3.2 06:29:46 13° WNW 06:32:45 70° SW 06:36:08 10° SE
STARLINK 1022 3.2 06:31:42 12° WNW 06:34:46 68° SW 06:38:10 10° SE
SMAP 3.0 06:33:22 10° N 06:38:03 78° WNW 06:42:41 10° SSW
STARLINK 1042 3.3 06:35:01 11° WNW 06:38:11 63° SW 06:41:35 10° SE
Okean 1 4.4 06:35:06 10° NW 06:38:20 24° W 06:41:32 10° SW
Meteor 2-4 Rocket 3.6 06:33:39 10° NNW 06:39:10 71° W 06:44:32 10° S
STARLINK 1056 3.3 06:37:46 11° WNW 06:41:04 59° SW 06:44:26 10° SE
Cosmos 2221 Rocket 4.0 06:37:57 10° NNW 06:42:05 40° W 06:46:12 10° SSW
Helios 1A Rocket 3.9 06:39:47 10° NNW 06:43:03 24° WNW 06:46:18 10° WSW
STARLINK 1054 3.4 06:40:33 10° WNW 06:43:56 56° SW 06:47:17 10° SE
ATLAS 5 CENTAUR R/B 3.8 06:44:15 10° NNW 06:45:33 11° NNW 06:46:54 10° N
ALOS 3.5 06:42:14 10° NNW 06:45:34 20° WNW 06:48:53 10° WSW
Cosmos 44 3.2 06:41:45 10° SSW 06:46:33 87° ESE 06:51:07 10° NE
STARLINK 1062 3.5 06:43:15 10° WNW 06:46:37 53° SW 06:49:58 10° SE
NOAA 12 4.4 06:43:39 10° NNE 06:48:55 77° ESE 06:54:09 10° S
STARLINK 1053 3.6 06:46:23 10° WNW 06:49:43 49° SW 06:53:03 10° SE
